Location: Bambrugge
(50.9212°N, 3.9299°E)
Time: 23:59:01
(UTC+00:00)

Helios 1A Rocket - Pass Details

Date: 17 August 2024
Orbit: 512 x 533 km, 98.3° (Epoch: 07 September)

Event Time Altitude Azimuth Distance (km) Brightness Sun altitude
Exits shadow 02:40:42 12° 281° (W) 1,668 5.0 -15.6°
Drops below altitude 10° 02:41:50 10° 298° (WNW) 1,814 5.3 -15.5°
Sets 02:45:06 0° 328° (NNW) 2,709 6.5 -15.2°
